Provo, UT

3:14 PM MST on November 14, 2019 (GMT -0700)
Provo Municipal

Weather History for KPVU - September, 2019

Change the Weather History Date:

Wednesday, September 18, 2019

  Actual Average Record
Temperature  
Mean Temperature 64 °F -  
Max Temperature 82 °F 72 °F 89 °F (2014)
Min Temperature 46 °F 45 °F 33 °F (2003)
Degree Days  
Heating Degree Days 2    
Growing Degree Days 14 (Base 50)    
Moisture  
Dew Point 37 °F    
Average Humidity 45    
Maximum Humidity 74    
Minimum Humidity 14    
Precipitation  
Precipitation 0.00 in - - ()
Sea Level Pressure  
Sea Level Pressure 29.87 in    
Wind  
Wind Speed 5 mph (SE)    
Max Wind Speed 14 mph    
Max Gust Speed -    
Visibility 10 miles    
Events      
Averages and records for this station are not official NWS values.
T = Trace of Precipitation, MM = Missing Value Source: NWS Daily Summary

Daily Weather History Graph

Daily Weather History Graph

Search for Another Location

Airport or City:

Astronomy

Sep. 18, 2019 Rise Set
Actual Time 7:10 AM MDT 7:30 PM MDT
Civil Twilight 6:43 AM MDT 7:58 PM MDT
Nautical Twilight 6:11 AM MDT 8:29 PM MDT
Astronomical Twilight 5:38 AM MDT 9:02 PM MDT
Moon 10:06 PM MDT (9/18) 11:17 AM MDT (9/18)
Length of Visible Light 13h 14m
Length of Day
12h 20m
Waning Gibbous, 82% of the Moon is Illuminated
Sep 18
Waning Gibbous
Sep 21
Last Quarter
Sep 28
New
Oct 5
First Quarter
Oct 13
Full

Hourly Weather History & Observations

Time (MDT) Temp. Dew Point Humidity Pressure Visibility Wind Dir Wind Speed Gust Speed Precip Events Conditions
12:56 AM 51.1 °F 41.0 °F 68% 29.97 in 10.0 mi SSE 5.8 mph - N/A   Clear
1:56 AM 51.1 °F 41.0 °F 68% 29.97 in 10.0 mi Calm Calm - N/A   Clear
2:56 AM 48.0 °F 39.9 °F 74% 29.96 in 10.0 mi Calm Calm - N/A   Clear
3:56 AM 48.9 °F 37.9 °F 66% 29.94 in 10.0 mi South 3.5 mph - N/A   Clear
4:56 AM 46.9 °F 37.9 °F 71% 29.94 in 10.0 mi ENE 3.5 mph - N/A   Clear
5:56 AM 46.9 °F 37.9 °F 71% 29.95 in 10.0 mi SE 4.6 mph - N/A   Clear
6:56 AM 46.9 °F 37.9 °F 71% 29.96 in 10.0 mi East 5.8 mph - N/A   Clear
7:56 AM 46.9 °F 37.9 °F 71% 29.98 in 10.0 mi Variable 3.5 mph - N/A   Clear
8:56 AM 53.1 °F 42.1 °F 66% 29.98 in 10.0 mi East 8.1 mph - N/A   Clear
9:56 AM 60.1 °F 36.0 °F 41% 29.96 in 10.0 mi SE 4.6 mph - N/A   Clear
10:56 AM 66.0 °F 36.0 °F 33% 29.95 in 10.0 mi ESE 5.8 mph - N/A   Clear
11:56 AM 69.1 °F 37.0 °F 31% 29.93 in 10.0 mi ESE 5.8 mph - N/A   Clear
12:56 PM 73.9 °F 36.0 °F 25% 29.89 in 9.0 mi South 3.5 mph - N/A   Clear
1:56 PM 77.0 °F 28.9 °F 17% 29.85 in 10.0 mi Variable 5.8 mph - N/A   Clear
2:56 PM 79.0 °F 27.0 °F 15% 29.82 in 10.0 mi Variable 5.8 mph - N/A   Clear
3:56 PM 81.0 °F 32.0 °F 17% 29.78 in 10.0 mi SSW 10.4 mph - N/A   Clear
4:56 PM 81.0 °F 35.1 °F 19% 29.75 in 10.0 mi SSW 13.8 mph - N/A   Clear
5:56 PM 81.0 °F 28.0 °F 14% 29.73 in 10.0 mi ESE 6.9 mph - N/A   Clear
6:56 PM 77.0 °F 37.9 °F 24% 29.73 in 10.0 mi Variable 3.5 mph - N/A   Clear
7:56 PM 66.9 °F 37.9 °F 34% 29.75 in 10.0 mi Calm Calm - N/A   Clear
8:56 PM 64.9 °F 41.0 °F 42% 29.76 in 10.0 mi East 4.6 mph - N/A   Clear
9:56 PM 62.1 °F 39.0 °F 43% 29.75 in 10.0 mi ESE 5.8 mph - N/A   Clear
10:56 PM 61.0 °F 42.1 °F 50% 29.75 in 10.0 mi SSE 6.9 mph - N/A   Clear
11:56 PM 61.0 °F 37.9 °F 42% 29.75 in 10.0 mi ESE 8.1 mph - N/A   Clear